Simultaneous Nadir Overpasses (SNOs) Predictions

Prediction of SNOs between METOP-B and NOAA-19 Satellite Orbit:

Table of predicted SNOs for the next 14.0 days since TLE Epoch: 10/28/2023
Index Date (METOP-B) Time (METOP-B) Lat,Lon (METOP-B) SZA (METOP-B ) Date (NOAA-19) Time (NOAA-19) Lat,Lon (NOAA-19) SZA (NOAA-19 ) Distance(km) Time Diff (sec)
1 10/29/2023 03:45:45 -80.72, -26.36 84.43 10/29/2023 03:44:33 -80.72, -26.51 84.47 2.63 72
2 10/29/2023 04:36:25 80.73, 141.13 95.61 10/29/2023 04:35:35 80.73, 141.12 95.59 0.12 50
3 10/29/2023 05:27:06 -80.74, -51.51 84.38 10/29/2023 05:26:30 -80.74, -51.39 84.38 2.18 36
4 10/29/2023 06:17:46 80.75, 115.99 95.66 10/29/2023 06:17:33 80.74, 115.89 95.65 1.81 13
5 10/29/2023 07:08:27 -80.75, -76.65 84.33 10/29/2023 07:08:28 -80.75, -76.63 84.32 0.42 1
6 10/29/2023 07:59:07 80.76, 90.84 95.71 10/29/2023 07:59:30 80.76, 91.01 95.74 3.07 23
7 10/29/2023 08:49:48 -80.76,-101.79 84.27 10/29/2023 08:50:26 -80.76,-101.87 84.27 1.36 38
8 10/29/2023 09:40:28 80.77, 65.70 95.77 10/29/2023 09:41:28 80.77, 65.78 95.80 1.38 60
9 10/29/2023 10:31:09 -80.77,-126.94 84.22 10/29/2023 10:32:24 -80.77,-127.11 84.21 3.13 75
10 11/09/2023 18:29:57 -80.71, 112.24 80.89 11/09/2023 18:28:54 -80.69, 112.07 80.94 3.18 63
11 11/09/2023 19:20:37 80.71, -80.35 99.13 11/09/2023 19:19:57 80.71, -80.24 99.13 1.97 40
12 11/09/2023 20:11:18 -80.72, 87.08 80.85 11/09/2023 20:10:51 -80.72, 87.18 80.85 1.70 27
13 11/09/2023 21:01:58 80.72,-105.50 99.18 11/09/2023 21:01:55 80.72,-105.49 99.18 0.30 3
14 11/09/2023 21:52:39 -80.73, 61.93 80.80 11/09/2023 21:52:49 -80.73, 61.93 80.80 0.33 10
15 11/09/2023 22:43:19 80.73,-130.65 99.22 11/09/2023 22:43:53 80.73,-130.74 99.23 1.57 34
16 11/09/2023 23:34:00 -80.74, 36.78 80.76 11/09/2023 23:34:47 -80.73, 36.67 80.75 1.92 47



Historial Predications of SNOs between METOP-B and NOAA-19
